Regional Weather Roundup
Issued by NWS

Home | Current Version | Previous Version | Text Only | Print | Product List | Glossary Off
Versions: 1 2 3 4 5 6 7 8 9 10 11 12 13 14 15 16 17 18 19 20 21 22 23 24 25 26 27 28 29 30 31 32 33 34 35 36 37 38 39 40 41 42 43 44 45 46 47 48 49 50

000
ASUS45 KTFX 291310
RWRMT
MONTANA REGIONAL WEATHER ROUNDUP
NATIONAL WEATHER SERVICE GREAT FALLS MT
700 AM MDT WED MAR 29 2017

NOTE: "FAIR" INDICATES FEW OR NO CLOUDS BELOW 12000 FEET WITH NO
SIGNIFICANT WEATHER AND/OR OBSTRUCTIONS TO VISIBILITY.

MTZ001>007-043-291400-
WEST OF THE DIVIDE

CITY           SKY/WX    TMP DP  RH WIND       PRES   REMARKS
KALISPELL      CLOUDY    40  32  73 SW5       30.07F
MISSOULA       CLOUDY    40  34  79 E3        30.11F
BUTTE          CLOUDY    33  25  72 CALM      30.12F
MULLAN PASS    SNOW      29  28  96 VRB3      30.00F VSB 1/4
ANACONDA         N/A     37  25  60 S6        30.10F
DEER LODGE       N/A     32  27  80 W3        30.13F
EUREKA           N/A     43  30  61 SE12      30.05F
HAMILTON         N/A     41  30  65 CALM      30.11F
PLAINS           N/A     40  32  73 CALM      30.08F
RONAN            N/A     40  33  76 CALM      30.11F
$$

MTZ008-052>055-291400-
SOUTHWEST MONTANA

CITY           SKY/WX    TMP DP  RH WIND       PRES   REMARKS
BOZEMAN        CLOUDY    31  26  82 S7        30.13S WCI  24
DILLON         CLOUDY    34  21  59 S8        30.12F WCI  27
W YELLOWSTONE  CLOUDY    28  25  86 S6        30.20S WCI  22
ENNIS          PTCLDY    37  27  65 S15       30.18F WCI  28
THREE FORKS      N/A     32  -7  18 CALM      30.10F
TWIN BRIDGES     N/A     32  20  61 S3        30.11F
$$

MTZ009-010-012-014-046-048-049-054-291400-
EAST SLOPES AND CENTRAL MONTANA

CITY           SKY/WX    TMP DP  RH WIND       PRES   REMARKS
CUT BANK       PTCLDY    37  26  64 W21       29.99F WCI  26
GREAT FALLS    MOCLDY    38  26  62 SW12      30.04F WCI  30
MALMSTROM AFB  PTCLDY    35  27  73 SW12      30.05S WCI  27
HELENA         CLOUDY    43  29  57 W6        30.10F
AUGUSTA        CLOUDY    38  24  58 S7        30.04R
BOWMANS CRNR   MOCLDY    37  27  68 SW18      30.03S WCI  27
CHOTEAU          N/A     36  25  64 S5        30.05F
CONRAD           N/A     38  31  76 SW8       30.03F
FAIRFIELD      MOCLDY    38  25  58 SW5       30.04R
POWER            N/A     34  27  74 SW10      30.03F WCI  26
RAYNESFORD       N/A     41  26  53 SW14G20   30.06S
$$

MTZ011-013-016-021-045-047-050-051-291400-
NORTH CENTRAL MONTANA

CITY           SKY/WX    TMP DP  RH WIND       PRES   REMARKS
HAVRE          PTCLDY    36  27  69 SW14      30.01R WCI  27
LEWISTOWN      CLEAR     31  23  72 SW8       30.05R WCI  23
N BAR RANCH      N/A     36  23  60 W3        30.07S
CHINOOK          N/A     37  27  65 CALM      30.01R
DENTON           N/A     38  27  64 W14       30.01S WCI  30
GEYSER         MOCLDY    38  25  61 SW9       30.04S WCI  31
GRASS RANGE      N/A     35  26  69 SW14      30.02S WCI  25
JUDITH GAP       N/A     33  22  64 S9        30.04F WCI  26
STANFORD         N/A     33  25  73 W6        30.04R WCI  27
WINIFRED         N/A     36  26  66 SW8       30.03S WCI  30
$$

MTZ017>020-022>027-061-062-291400-
NORTHEAST MONTANA

CITY           SKY/WX    TMP DP  RH WIND       PRES   REMARKS
GLASGOW        CLOUDY    38  28  67 SW5       30.01S
JORDAN           N/A     31  28  89 W5        30.04S
SIDNEY         CLOUDY    32  32 100 S9        30.06S WCI  24
WOLF POINT     CLOUDY    35  32  88 W3        30.03S
MALTA          CLEAR     30  27  86 W6        30.01S WCI  24
PLENTYWOOD       N/A     36  36 100 SE6       30.01S WCI  31
POPLAR           N/A     37  34  87 S5        30.04R
SCOBEY           N/A     38  30  73 SE1       29.98R
$$

MTZ028>42-056>058-291400-
SOUTHCENTRAL AND SOUTHEAST MONTANA

CITY           SKY/WX    TMP DP  RH WIND       PRES   REMARKS
BAKER          CLOUDY    31  29  92 E3        30.08S
BILLINGS       CLOUDY    40  27  59 SW7       30.08S
LIVINGSTON     CLOUDY    31  22  69 NW9       30.10S WCI  23
MILES CITY     MOCLDY    34  32  92 SE8       30.07R WCI  27
BIG TIMBER     CLEAR     37  23  56 W21       30.07F WCI  27
EKALAKA          N/A     40  35  82 S1        30.04
FORSYTH          N/A     34  34 100 CALM      30.07S
HARLOWTON      MOCLDY    37  24  60 W13       30.07R WCI  28
LAUREL           N/A     37  19  48 CALM      30.05F
$$

REGIONAL REPORTS...DAKOTAS

CITY           SKY/WX    TMP DP  RH WIND       PRES   REMARKS
WILLISTON      CLOUDY    32  32 100 SW3       30.05F FOG
MINOT          CLOUDY    44  40  85 S9        30.06S
DICKINSON      FOG       38  38 100 S17       30.06S VSB 1/4 WCI  28
BEACH            N/A     32  32 100 S8        30.10R WCI  25
TIOGA          FOG       30  30 100 CALM      30.06S VSB<1/4
WATFORD CITY   FOG       30  30 100 CALM      30.06S VSB 3/4
BISMARCK       CLOUDY    36  35  96 E5        30.15R FOG
GRAND FORKS    CLOUDY    33  32  96 S3        30.17S
FARGO          MOCLDY    42  32  67 CALM      30.17R
BUFFALO SD       N/A     41  40  96 SW7       30.04S
RAPID CITY     CLOUDY    38  37  97 CALM      30.11R FOG
$$

REGIONAL REPORTS...WYOMING/IDAHO/WASHINGTON

CITY           SKY/WX    TMP DP  RH WIND       PRES   REMARKS
GILLETTE       CLEAR     32  29  88 CALM      30.10F
SHERIDAN       CLOUDY    29  24  82 CALM      30.09R
BUFFALO WY     CLOUDY    35  23  61 W5        30.10S
CODY           CLOUDY    41  24  51 SW12      30.10F
YELLOWSTONE LA   N/A     25  22  88 CALM      30.20S
IDAHO FALLS    CLOUDY    34  28  79 SW8       30.22F WCI  27
SALMON         PTCLDY    28  23  80 CALM      30.15F
BOISE          MOCLDY    42  32  67 SE8       30.18F
SPOKANE        LGT RAIN  40  38  93 S9        30.03F
$$

REGIONAL REPORTS...ALBERTA

CITY           SKY/WX    TMP DP  RH WIND       PRES   REMARKS
EDMONTON         N/A     28  27  93 W2        29.87R VSB 0
CALGARY        PTCLDY    34  19  55 SW5       29.90R
LETHBRIDGE     PTCLDY    39  27  60 SW14      29.95R WCI  31
MEDICINE HAT   PTCLDY    34  27  75 S9        29.93S WCI  26
WATERTON GATE    N/A     37  28  70 SW13G18     N/A  WCI  29
MILK RIVER       N/A     37  27  65 SW10        N/A  WCI  30
$$

REGIONAL REPORTS...SASKATCHEWAN

CITY           SKY/WX    TMP DP  RH WIND       PRES   REMARKS
SWIFT CURRENT  MOCLDY    36  28  75 SW16      29.87S WCI  26
REGINA         CLOUDY    34  34 100 SE10      29.94S FOG     WCI  26
SASKATOON      MOCLDY    32  28  86 SE8       29.87R WCI  25
CYPRESS HILLS    N/A     37  21  52 W9          N/A  WCI  31
VAL MARIE        N/A     30  25  80 SW6         N/A  WCI  24
ROCKGLEN         N/A     34  27  75 W12         N/A  WCI  25
ASSINIBOIA       N/A     32 N/A N/A NE3         N/A
$$



USA.gov is the U.S. government's official web portal to all federal, state and local government web resources and services.